15-12-2023, 00:00:05,    257,    0.0,    5.1,   0.00,   0.00, 1024.2,   90.1, -999.0
15-12-2023, 00:00:15,    257,    0.0,    5.1,   0.00,   0.00, 1024.2,   89.0, -999.0
15-12-2023, 00:00:25,    257,    0.0,    5.2,   0.00,   0.00, 1024.2,   88.5, -999.0
15-12-2023, 00:00:35,    257,    0.0,    5.0,   0.00,   0.00, 1024.2,   88.2, -999.0
15-12-2023, 00:00:45,    257,    0.0,    5.1,   0.00,   0.00, 1024.3,   87.4, -999.0
15-12-2023, 00:00:55,    258,    0.0,    5.2,   0.00,   0.00, 1024.3,   86.7, -999.0
15-12-2023, 00:01:05,    257,    0.0,    5.2,   0.00,   0.00, 1024.3,   86.3, -999.0
15-12-2023, 00:01:15,    257,    0.0,    5.1,   0.00,   0.00, 1024.3,   86.2, -999.0
15-12-2023, 00:01:25,    257,    0.0,    5.1,   0.00,   0.00, 1024.3,   86.2, -999.0
15-12-2023, 00:01:35,    257,    0.0,    5.2,   0.00,   0.00, 1024.3,   86.1, -999.0
15-12-2023, 00:01:45,    257,    0.0,    5.2,   0.00,   0.00, 1024.3,   85.4, -999.0
15-12-2023, 00:01:55,    257,    0.0,    5.1,   0.00,   0.00, 1024.3,   84.8, -999.0
15-12-2023, 00:02:05,    257,    0.0,    5.2,   0.00,   0.00, 1024.3,   84.8, -999.0
15-12-2023, 00:02:15,    257,    0.0,    5.2,   0.00,   0.00, 1024.3,   85.4, -999.0
15-12-2023, 00:02:25,    257,    0.0,    5.2,   0.00,   0.00, 1024.3,   85.2, -999.0
15-12-2023, 00:02:35,    257,    0.0,    5.2,   0.00,   0.00, 1024.3,   84.0, -999.0
15-12-2023, 00:02:45,    258,    0.0,    5.2,   0.00,   0.00, 1024.3,   83.3, -999.0
15-12-2023, 00:02:55,    258,    0.0,    5.3,   0.00,   0.00, 1024.3,   83.1, -999.0
15-12-2023, 00:03:05,    258,    0.0,    5.2,   0.00,   0.00, 1024.3,   83.3, -999.0
15-12-2023, 00:03:15,    257,    0.0,    5.3,   0.00,   0.00, 1024.3,   83.4, -999.0
15-12-2023, 00:03:25,    258,    0.0,    5.2,   0.00,   0.00, 1024.3,   83.4, -999.0
15-12-2023, 00:03:35,    257,    0.0,    5.3,   0.00,   0.00, 1024.3,   83.2, -999.0
15-12-2023, 00:03:44,    257,    0.0,    5.3,   0.00,   0.00, 1024.3,   83.0, -999.0
15-12-2023, 00:03:55,    258,    0.0,    5.2,   0.00,   0.00, 1024.3,   82.8, -999.0
15-12-2023, 00:04:05,    258,    0.0,    5.1,   0.00,   0.00, 1024.3,   82.3, -999.0
15-12-2023, 00:04:14,    257,    0.0,    5.2,   0.00,   0.00, 1024.3,   81.9, -999.0
15-12-2023, 00:04:24,    258,    0.0,    5.2,   0.00,   0.00, 1024.4,   81.9, -999.0
15-12-2023, 00:04:35,    258,    0.0,    5.3,   0.00,   0.00, 1024.4,   82.3, -999.0
15-12-2023, 00:04:45,    258,    0.0,    5.3,   0.00,   0.00, 1024.4,   81.9, -999.0
15-12-2023, 00:04:54,    257,    0.0,    5.2,   0.00,   0.00, 1024.4,   81.5, -999.0
15-12-2023, 00:05:04,    257,    0.0,    5.3,   0.00,   0.00, 1024.3,   81.2, -999.0
15-12-2023, 00:05:15,    257,    0.0,    5.3,   0.00,   0.00, 1024.4,   81.3, -999.0
15-12-2023, 00:05:24,    258,    0.0,    5.3,   0.00,   0.00, 1024.4,   81.4, -999.0
15-12-2023, 00:05:34,    258,    0.0,    5.3,   0.00,   0.00, 1024.4,   81.3, -999.0
15-12-2023, 00:05:45,    258,    0.0,    5.3,   0.00,   0.00, 1024.4,   81.0, -999.0
15-12-2023, 00:05:54,    257,    0.0,    5.3,   0.00,   0.00, 1024.4,   80.7, -999.0
15-12-2023, 00:06:04,    258,    0.0,    5.2,   0.00,   0.00, 1024.4,   80.4, -999.0
15-12-2023, 00:06:14,    258,    0.0,    5.3,   0.00,   0.00, 1024.4,   80.1, -999.0
15-12-2023, 00:06:25,    257,    0.0,    5.3,   0.00,   0.00, 1024.4,   80.1, -999.0
15-12-2023, 00:06:34,    258,    0.0,    5.2,   0.00,   0.00, 1024.5,   80.0, -999.0
15-12-2023, 00:06:44,    257,    0.0,    5.2,   0.00,   0.00, 1024.5,   80.1, -999.0
15-12-2023, 00:06:54,    257,    0.0,    5.3,   0.00,   0.00, 1024.4,   80.4, -999.0
15-12-2023, 00:07:04,    257,    0.0,    5.3,   0.00,   0.00, 1024.4,   80.8, -999.0
15-12-2023, 00:07:14,    258,    0.0,    5.4,   0.00,   0.00, 1024.5,   81.2, -999.0
15-12-2023, 00:07:24,    258,    0.0,    5.3,   0.00,   0.00, 1024.5,   81.4, -999.0
15-12-2023, 00:07:34,    258,    0.0,    5.3,   0.00,   0.00, 1024.5,   81.8, -999.0
15-12-2023, 00:07:44,    258,    0.0,    5.3,   0.00,   0.00, 1024.5,   82.0, -999.0
15-12-2023, 00:07:54,    258,    0.0,    5.3,   0.00,   0.00, 1024.4,   82.2, -999.0
15-12-2023, 00:08:04,    257,    0.0,    5.3,   0.00,   0.00, 1024.5,   82.3, -999.0
15-12-2023, 00:08:14,    258,    0.0,    5.2,   0.00,   0.00, 1024.5,   82.4, -999.0
15-12-2023, 00:08:24,    258,    0.0,    5.3,   0.00,   0.00, 1024.5,   82.7, -999.0
15-12-2023, 00:08:34,    257,    0.0,    5.2,   0.00,   0.00, 1024.5,   82.9, -999.0
15-12-2023, 00:08:44,    257,    0.0,    5.3,   0.00,   0.00, 1024.5,   82.8, -999.0
15-12-2023, 00:08:54,    258,    0.0,    5.2,   0.00,   0.00, 1024.5,   82.8, -999.0
15-12-2023, 00:09:04,    258,    0.0,    5.3,   0.00,   0.00, 1024.5,   83.5, -999.0
15-12-2023, 00:09:14,    257,    0.0,    5.2,   0.00,   0.00, 1024.5,   84.1, -999.0
15-12-2023, 00:09:24,    258,    0.0,    5.3,   0.00,   0.00, 1024.5,   84.6, -999.0
15-12-2023, 00:09:34,    258,    0.0,    5.3,   0.00,   0.00, 1024.5,   84.9, -999.0
15-12-2023, 00:09:44,    258,    0.0,    5.2,   0.00,   0.00, 1024.5,   84.9, -999.0
15-12-2023, 00:09:54,    258,    0.0,    5.2,   0.00,   0.00, 1024.5,   84.4, -999.0
15-12-2023, 00:10:04,    257,    0.0,    5.1,   0.00,   0.00, 1024.5,   84.0, -999.0
15-12-2023, 00:10:14,    257,    0.0,    5.2,   0.00,   0.00, 1024.5,   83.8, -999.0
15-12-2023, 00:10:24,    258,    0.0,    5.2,   0.00,   0.00, 1024.5,   84.0, -999.0
15-12-2023, 00:10:34,    258,    0.0,    5.1,   0.00,   0.00, 1024.5,   84.1, -999.0
15-12-2023, 00:10:44,    257,    0.0,    5.1,   0.00,   0.00, 1024.5,   84.0, -999.0
15-12-2023, 00:10:54,    257,    0.0,    5.1,   0.00,   0.00, 1024.5,   83.7, -999.0
15-12-2023, 00:11:04,    258,    0.0,    5.1,   0.00,   0.00, 1024.5,   83.5, -999.0
15-12-2023, 00:11:14,    258,    0.0,    5.1,   0.00,   0.00, 1024.5,   84.0, -999.0
15-12-2023, 00:11:24,    257,    0.0,    5.0,   0.00,   0.00, 1024.5,   84.1, -999.0
15-12-2023, 00:11:34,    257,    0.0,    5.0,   0.00,   0.00, 1024.5,   83.9, -999.0
15-12-2023, 00:11:44,    258,    0.0,    5.1,   0.00,   0.00, 1024.5,   83.5, -999.0
15-12-2023, 00:11:54,    257,    0.0,    5.2,   0.00,   0.00, 1024.5,   82.9, -999.0
15-12-2023, 00:12:03,    257,    0.0,    5.1,   0.00,   0.00, 1024.5,   82.3, -999.0
15-12-2023, 00:12:14,    258,    0.0,    5.0,   0.00,   0.00, 1024.5,   81.9, -999.0
15-12-2023, 00:12:24,    258,    0.0,    5.1,   0.00,   0.00, 1024.5,   81.8, -999.0
15-12-2023, 00:12:34,    257,    0.0,    5.1,   0.00,   0.00, 1024.5,   81.7, -999.0
15-12-2023, 00:12:43,    257,    0.0,    5.1,   0.00,   0.00, 1024.5,   82.0, -999.0
15-12-2023, 00:12:54,    258,    0.0,    5.1,   0.00,   0.00, 1024.5,   82.1, -999.0
15-12-2023, 00:13:04,    257,    0.0,    5.2,   0.00,   0.00, 1024.5,   82.5, -999.0
15-12-2023, 00:13:13,    258,    0.0,    5.2,   0.00,   0.00, 1024.5,   82.7, -999.0
15-12-2023, 00:13:23,    258,    0.0,    5.1,   0.00,   0.00, 1024.5,   82.9, -999.0
15-12-2023, 00:13:34,    257,    0.0,    5.2,   0.00,   0.00, 1024.5,   83.1, -999.0
15-12-2023, 00:13:44,    257,    0.0,    5.1,   0.00,   0.00, 1024.5,   83.3, -999.0
15-12-2023, 00:13:53,    257,    0.0,    5.1,   0.00,   0.00, 1024.5,   83.3, -999.0
15-12-2023, 00:14:03,    257,    0.0,    5.1,   0.00,   0.00, 1024.5,   83.2, -999.0
15-12-2023, 00:14:14,    257,    0.0,    5.1,   0.00,   0.00, 1024.5,   84.0, -999.0
15-12-2023, 00:14:23,    257,    0.0,    5.1,   0.00,   0.00, 1024.6,   84.4, -999.0
15-12-2023, 00:14:33,    258,    0.0,    5.1,   0.00,   0.00, 1024.6,   84.4, -999.0
15-12-2023, 00:14:43,    257,    0.0,    5.1,   0.00,   0.00, 1024.6,   84.4, -999.0
15-12-2023, 00:14:54,    258,    0.0,    5.1,   0.00,   0.00, 1024.5,   84.4, -999.0
15-12-2023, 00:15:03,    258,    0.0,    5.0,   0.00,   0.00, 1024.6,   84.4, -999.0
15-12-2023, 00:15:13,    258,    0.0,    5.1,   0.00,   0.00, 1024.6,   84.6, -999.0
15-12-2023, 00:15:23,    257,    0.0,    5.1,   0.00,   0.00, 1024.6,   84.7, -999.0
15-12-2023, 00:15:33,    257,    0.0,    5.1,   0.00,   0.00, 1024.6,   84.5, -999.0
15-12-2023, 00:15:43,    257,    0.0,    5.0,   0.00,   0.00, 1024.6,   84.1, -999.0
15-12-2023, 00:15:53,    258,    0.0,    5.0,   0.00,   0.00, 1024.6,   83.8, -999.0
15-12-2023, 00:16:03,    258,    0.0,    5.1,   0.00,   0.00, 1024.6,   83.7, -999.0
15-12-2023, 00:16:13,    258,    0.0,    5.0,   0.00,   0.00, 1024.6,   83.6, -999.0
15-12-2023, 00:16:23,    258,    0.0,    5.1,   0.00,   0.00, 1024.6,   83.8, -999.0
15-12-2023, 00:16:33,    258,    0.0,    5.0,   0.00,   0.00, 1024.6,   84.1, -999.0
15-12-2023, 00:16:43,    258,    0.0,    5.1,   0.00,   0.00, 1024.5,   85.4, -999.0
15-12-2023, 00:16:53,    258,    0.0,    5.0,   0.00,   0.00, 1024.6,   86.5, -999.0
15-12-2023, 00:17:03,    258,    0.0,    5.0,   0.00,   0.00, 1024.6,   87.1, -999.0
15-12-2023, 00:17:13,    257,    0.0,    5.0,   0.00,   0.00, 1024.5,   87.4, -999.0
15-12-2023, 00:17:23,    257,    0.0,    5.1,   0.00,   0.00, 1024.6,   87.3, -999.0
15-12-2023, 00:17:33,    258,    0.0,    5.0,   0.00,   0.00, 1024.6,   87.2, -999.0
15-12-2023, 00:17:43,    258,    0.0,    5.1,   0.00,   0.00, 1024.6,   87.1, -999.0
15-12-2023, 00:17:53,    258,    0.0,    5.0,   0.00,   0.00, 1024.6,   87.4, -999.0
15-12-2023, 00:18:03,    257,    0.0,    5.0,   0.00,   0.00, 1024.6,   87.4, -999.0
15-12-2023, 00:18:13,    258,    0.0,    5.0,   0.00,   0.00, 1024.6,   87.2, -999.0
15-12-2023, 00:18:23,    257,    0.0,    5.0,   0.00,   0.00, 1024.6,   87.0, -999.0
15-12-2023, 00:18:33,    258,    0.0,    5.0,   0.00,   0.00, 1024.6,   86.7, -999.0
15-12-2023, 00:18:43,    257,    0.0,    5.0,   0.00,   0.00, 1024.5,   86.7, -999.0
15-12-2023, 00:18:53,    258,    0.0,    5.0,   0.00,   0.00, 1024.6,   87.8, -999.0
15-12-2023, 00:19:03,    258,    0.0,    5.0,   0.00,   0.00, 1024.6,   88.6, -999.0
15-12-2023, 00:19:13,    258,    0.0,    5.1,   0.00,   0.00, 1024.6,   89.8, -999.0
15-12-2023, 00:19:23,    258,    0.0,    5.0,   0.00,   0.00, 1024.6,   89.8, -999.0
15-12-2023, 00:19:33,    258,    0.0,    5.0,   0.00,   0.00, 1024.6,   89.1, -999.0
15-12-2023, 00:19:43,    258,    0.0,    5.0,   0.00,   0.00, 1024.6,   89.2, -999.0
15-12-2023, 00:19:53,    258,    0.0,    5.0,   0.00,   0.00, 1024.6,   88.7, -999.0
15-12-2023, 00:20:03,    258,    0.0,    4.9,   0.00,   0.00, 1024.6,   88.3, -999.0
15-12-2023, 00:20:13,    258,    0.0,    5.0,   0.00,   0.00, 1024.6,   88.9, -999.0
15-12-2023, 00:20:23,    258,    0.0,    5.0,   0.00,   0.00, 1024.6,   89.4, -999.0
15-12-2023, 00:20:32,    258,    0.0,    5.1,   0.00,   0.00, 1024.6,   89.3, -999.0
15-12-2023, 00:20:43,    257,    0.0,    5.0,   0.00,   0.00, 1024.6,   88.5, -999.0
15-12-2023, 00:20:53,    258,    0.0,    5.0,   0.00,   0.00, 1024.6,   87.8, -999.0
15-12-2023, 00:21:02,    258,    0.0,    5.0,   0.00,   0.00, 1024.6,   87.6, -999.0
15-12-2023, 00:21:12,    258,    0.0,    5.0,   0.00,   0.00, 1024.6,   87.7, -999.0
15-12-2023, 00:21:23,    258,    0.0,    5.0,   0.00,   0.00, 1024.6,   87.6, -999.0
15-12-2023, 00:21:33,    258,    0.0,    5.0,   0.00,   0.00, 1024.6,   87.5, -999.0
15-12-2023, 00:21:42,    257,    0.0,    5.0,   0.00,   0.00, 1024.6,   87.3, -999.0
15-12-2023, 00:21:52,    258,    0.0,    4.9,   0.00,   0.00, 1024.6,   87.3, -999.0
15-12-2023, 00:22:03,    258,    0.0,    4.9,   0.00,   0.00, 1024.6,   87.7, -999.0
15-12-2023, 00:22:12,    257,    0.0,    5.0,   0.00,   0.00, 1024.7,   88.5, -999.0
15-12-2023, 00:22:22,    258,    0.0,    5.0,   0.00,   0.00, 1024.6,   88.8, -999.0
15-12-2023, 00:22:32,    258,    0.0,    5.0,   0.00,   0.00, 1024.6,   88.8, -999.0
15-12-2023, 00:22:43,    258,    0.0,    4.9,   0.00,   0.00, 1024.6,   89.2, -999.0
15-12-2023, 00:22:52,    258,    0.0,    4.9,   0.00,   0.00, 1024.6,   89.7, -999.0
15-12-2023, 00:23:02,    258,    0.0,    5.0,   0.00,   0.00, 1024.7,   89.9, -999.0
15-12-2023, 00:23:13,    257,    0.0,    5.0,   0.00,   0.00, 1024.7,   90.3, -999.0
15-12-2023, 00:23:22,    258,    0.0,    5.0,   0.00,   0.00, 1024.7,   90.8, -999.0
15-12-2023, 00:23:32,    258,    0.0,    4.9,   0.00,   0.00, 1024.7,   91.0, -999.0
15-12-2023, 00:23:42,    258,    0.0,    4.9,   0.00,   0.00, 1024.7,   91.2, -999.0
15-12-2023, 00:23:52,    258,    0.0,    4.9,   0.00,   0.00, 1024.6,   91.1, -999.0
15-12-2023, 00:24:02,    258,    0.0,    4.8,   0.00,   0.00, 1024.6,   91.4, -999.0
15-12-2023, 00:24:12,    258,    0.0,    4.9,   0.00,   0.00, 1024.6,   91.7, -999.0
15-12-2023, 00:24:22,    258,    0.0,    4.9,   0.00,   0.00, 1024.7,   92.0, -999.0
15-12-2023, 00:24:32,    258,    0.0,    4.9,   0.00,   0.00, 1024.7,   92.5, -999.0
15-12-2023, 00:24:42,    258,    0.0,    4.9,   0.00,   0.00, 1024.7,   93.1, -999.0
15-12-2023, 00:24:52,    258,    0.0,    4.9,   0.00,   0.00, 1024.7,   94.0, -999.0
15-12-2023, 00:25:02,    258,    0.0,    4.9,   0.00,   0.00, 1024.7,   94.2, -999.0
15-12-2023, 00:25:12,    258,    0.0,    4.9,   0.00,   0.00, 1024.6,   93.9, -999.0
15-12-2023, 00:25:22,    257,    0.0,    4.9,   0.00,   0.00, 1024.6,   93.3, -999.0
15-12-2023, 00:25:32,    257,    0.0,    4.9,   0.00,   0.00, 1024.6,   93.3, -999.0
15-12-2023, 00:25:42,    258,    0.0,    4.9,   0.00,   0.00, 1024.6,   93.9, -999.0
15-12-2023, 00:25:52,    257,    0.0,    4.9,   0.00,   0.00, 1024.6,   96.7, -999.0
15-12-2023, 00:26:02,    258,    0.0,    5.0,   0.00,   0.00, 1024.6,   97.5, -999.0
15-12-2023, 00:26:12,    258,    0.0,    5.0,   0.00,   0.00, 1024.6,   97.8, -999.0
15-12-2023, 00:26:22,    258,    0.0,    5.0,   0.00,   0.00, 1024.6,   98.6, -999.0
15-12-2023, 00:26:32,    258,    0.0,    5.0,   0.00,   0.00, 1024.6,   98.7, -999.0
15-12-2023, 00:26:42,    258,    0.0,    4.9,   0.00,   0.00, 1024.6,   98.6, -999.0
15-12-2023, 00:26:52,    257,    0.0,    4.9,   0.00,   0.00, 1024.6,   98.6, -999.0
15-12-2023, 00:27:02,    258,    0.0,    5.0,   0.00,   0.00, 1024.6,   98.6, -999.0
15-12-2023, 00:27:12,    258,    0.0,    5.0,   0.00,   0.00, 1024.5,   98.6, -999.0
15-12-2023, 00:27:22,    258,    0.0,    5.1,   0.00,   0.00, 1024.5,   98.6, -999.0
15-12-2023, 00:27:32,    258,    0.0,    5.0,   0.00,   0.00, 1024.6,   98.1, -999.0
15-12-2023, 00:27:42,    257,    0.0,    5.0,   0.00,   0.00, 1024.6,   98.0, -999.0
15-12-2023, 00:27:52,    257,    0.0,    5.0,   0.00,   0.00, 1024.6,   98.1, -999.0
15-12-2023, 00:28:02,    258,    0.0,    5.0,   0.00,   0.00, 1024.6,   97.6, -999.0
15-12-2023, 00:28:12,    256,    0.0,    5.0,   0.00,   0.00, 1024.6,   96.9, -999.0
15-12-2023, 00:28:22,    258,    0.0,    5.0,   0.00,   0.00, 1024.6,   96.9, -999.0
15-12-2023, 00:28:32,    258,    0.0,    5.0,   0.00,   0.00, 1024.5,   96.7, -999.0
15-12-2023, 00:28:42,    258,    0.0,    4.9,   0.00,   0.00, 1024.6,   96.4, -999.0
15-12-2023, 00:28:51,    258,    0.0,    5.0,   0.00,   0.00, 1024.6,   96.9, -999.0
15-12-2023, 00:29:02,    258,    0.0,    5.0,   0.00,   0.00, 1024.6,   95.6, -999.0
15-12-2023, 00:29:12,    258,    0.0,    5.0,   0.00,   0.00, 1024.6,   94.8, -999.0
15-12-2023, 00:29:22,    257,    0.0,    5.0,   0.00,   0.00, 1024.6,   95.2, -999.0
15-12-2023, 00:29:31,    258,    0.0,    5.0,   0.00,   0.00, 1024.5,   96.1, -999.0
15-12-2023, 00:29:42,    257,    0.0,    5.0,   0.00,   0.00, 1024.6,   96.7, -999.0
15-12-2023, 00:29:52,    258,    0.0,    5.0,   0.00,   0.00, 1024.5,   97.4, -999.0
15-12-2023, 00:30:01,    257,    0.0,    4.9,   0.00,   0.00, 1024.6,   98.0, -999.0
15-12-2023, 00:30:11,    258,    0.0,    4.9,   0.00,   0.00, 1024.6,   98.4, -999.0
15-12-2023, 00:30:22,    258,    0.0,    4.9,   0.00,   0.00, 1024.6,   98.6, -999.0
15-12-2023, 00:30:32,    258,    0.0,    4.9,   0.00,   0.00, 1024.6,   98.6, -999.0
15-12-2023, 00:30:41,    257,    0.0,    4.9,   0.00,   0.00, 1024.6,   98.8, -999.0
15-12-2023, 00:30:51,    258,    0.0,    4.9,   0.00,   0.00, 1024.6,   98.7, -999.0
15-12-2023, 00:31:02,    258,    0.0,    4.9,   0.00,   0.00, 1024.6,   98.6, -999.0
15-12-2023, 00:31:11,    258,    0.0,    4.8,   0.00,   0.00, 1024.7,   98.7, -999.0
15-12-2023, 00:31:21,    258,    0.0,    4.9,   0.00,   0.00, 1024.6,   98.6, -999.0
15-12-2023, 00:31:31,    257,    0.0,    4.9,   0.00,   0.00, 1024.7,   98.6, -999.0
15-12-2023, 00:31:41,    257,    0.0,    5.0,   0.00,   0.00, 1024.7,   98.7, -999.0
15-12-2023, 00:31:51,    258,    0.0,    5.0,   0.00,   0.00, 1024.7,   98.7, -999.0
15-12-2023, 00:32:01,    258,    0.0,    5.0,   0.00,   0.00, 1024.7,   98.7, -999.0
15-12-2023, 00:32:11,    258,    0.0,    4.9,   0.00,   0.00, 1024.7,   98.6, -999.0
15-12-2023, 00:32:21,    258,    0.0,    5.0,   0.00,   0.00, 1024.7,   98.6, -999.0
15-12-2023, 00:32:31,    258,    0.0,    5.0,   0.00,   0.00, 1024.7,   98.7, -999.0
15-12-2023, 00:32:41,    258,    0.0,    5.0,   0.00,   0.00, 1024.7,   98.7, -999.0
15-12-2023, 00:32:51,    257,    0.0,    4.9,   0.00,   0.00, 1024.7,   98.6, -999.0
15-12-2023, 00:33:01,    258,    0.0,    4.9,   0.00,   0.00, 1024.7,   98.6, -999.0
15-12-2023, 00:33:11,    257,    0.0,    4.9,   0.00,   0.00, 1024.7,   98.7, -999.0
15-12-2023, 00:33:21,    258,    0.0,    4.9,   0.00,   0.00, 1024.7,   98.6, -999.0
15-12-2023, 00:33:31,    258,    0.0,    5.0,   0.00,   0.00, 1024.7,   98.7, -999.0
15-12-2023, 00:33:41,    258,    0.0,    4.9,   0.00,   0.00, 1024.7,   98.6, -999.0
15-12-2023, 00:33:51,    258,    0.0,    4.9,   0.00,   0.00, 1024.7,   98.6, -999.0
15-12-2023, 00:34:01,    258,    0.0,    4.9,   0.00,   0.00, 1024.7,   98.7, -999.0
15-12-2023, 00:34:11,    258,    0.0,    4.9,   0.00,   0.00, 1024.7,   98.7, -999.0
15-12-2023, 00:34:21,    258,    0.0,    5.0,   0.00,   0.00, 1024.7,   98.7, -999.0
15-12-2023, 00:34:31,    257,    0.0,    4.9,   0.00,   0.00, 1024.7,   98.6, -999.0
15-12-2023, 00:34:41,    258,    0.0,    5.0,   0.00,   0.00, 1024.7,   98.6, -999.0
15-12-2023, 00:34:51,    258,    0.0,    4.9,   0.00,   0.00, 1024.7,   97.7, -999.0
15-12-2023, 00:35:01,    258,    0.0,    4.9,   0.00,   0.00, 1024.7,   96.0, -999.0
15-12-2023, 00:35:11,    258,    0.0,    5.0,   0.00,   0.00, 1024.7,   94.6, -999.0
15-12-2023, 00:35:21,    258,    0.0,    5.0,   0.00,   0.00, 1024.7,   93.7, -999.0
15-12-2023, 00:35:31,    257,    0.0,    4.9,   0.00,   0.00, 1024.7,   93.0, -999.0
15-12-2023, 00:35:41,    257,    0.0,    4.9,   0.00,   0.00, 1024.7,   93.3, -999.0
15-12-2023, 00:35:51,    258,    0.0,    4.9,   0.00,   0.00, 1024.7,   93.8, -999.0
15-12-2023, 00:36:01,    258,    0.0,    5.0,   0.00,   0.00, 1024.7,   93.1, -999.0
15-12-2023, 00:36:11,    258,    0.0,    5.0,   0.00,   0.00, 1024.7,   91.9, -999.0
15-12-2023, 00:36:21,    258,    0.0,    4.9,   0.00,   0.00, 1024.7,   90.9, -999.0
15-12-2023, 00:36:31,    258,    0.0,    4.9,   0.00,   0.00, 1024.7,   90.4, -999.0
15-12-2023, 00:36:41,    258,    0.0,    4.9,   0.00,   0.00, 1024.7,   90.8, -999.0
15-12-2023, 00:36:50,    258,    0.0,    5.0,   0.00,   0.00, 1024.7,   92.2, -999.0
15-12-2023, 00:37:01,    258,    0.0,    5.0,   0.00,   0.00, 1024.7,   93.6, -999.0
15-12-2023, 00:37:11,    258,    0.0,    4.9,   0.00,   0.00, 1024.7,   94.7, -999.0
15-12-2023, 00:37:21,    257,    0.0,    5.0,   0.00,   0.00, 1024.7,   94.8, -999.0
15-12-2023, 00:37:30,    258,    0.0,    5.0,   0.00,   0.00, 1024.7,   94.2, -999.0
15-12-2023, 00:37:41,    258,    0.0,    5.0,   0.00,   0.00, 1024.7,   93.2, -999.0
15-12-2023, 00:37:51,    258,    0.0,    5.0,   0.00,   0.00, 1024.7,   93.0, -999.0
15-12-2023, 00:38:00,    258,    0.0,    4.9,   0.00,   0.00, 1024.8,   92.8, -999.0
15-12-2023, 00:38:11,    258,    0.0,    5.0,   0.00,   0.00, 1024.7,   93.1, -999.0
15-12-2023, 00:38:21,    258,    0.0,    5.0,   0.00,   0.00, 1024.7,   93.1, -999.0
15-12-2023, 00:38:31,    258,    0.0,    5.0,   0.00,   0.00, 1024.7,   93.6, -999.0
15-12-2023, 00:38:40,    258,    0.0,    5.0,   0.00,   0.00, 1024.7,   93.5, -999.0
15-12-2023, 00:38:50,    258,    0.0,    5.0,   0.00,   0.00, 1024.7,   92.9, -999.0
15-12-2023, 00:39:01,    258,    0.0,    5.0,   0.00,   0.00, 1024.7,   92.2, -999.0
15-12-2023, 00:39:10,    258,    0.0,    5.0,   0.00,   0.00, 1024.8,   91.4, -999.0
15-12-2023, 00:39:20,    258,    0.0,    5.0,   0.00,   0.00, 1024.7,   91.7, -999.0
15-12-2023, 00:39:31,    258,    0.0,    5.0,   0.00,   0.00, 1024.8,   91.7, -999.0
15-12-2023, 00:39:40,    258,    0.0,    5.0,   0.00,   0.00, 1024.8,   91.4, -999.0
15-12-2023, 00:39:50,    258,    0.0,    5.0,   0.00,   0.00, 1024.8,   91.3, -999.0
15-12-2023, 00:40:00,    258,    0.0,    5.1,   0.00,   0.00, 1024.8,   91.4, -999.0
15-12-2023, 00:40:11,    258,    0.0,    4.9,   0.00,   0.00, 1024.8,   91.9, -999.0
15-12-2023, 00:40:20,    258,    0.0,    4.9,   0.00,   0.00, 1024.8,   92.5, -999.0
15-12-2023, 00:40:30,    258,    0.0,    5.0,   0.00,   0.00, 1024.8,   93.0, -999.0
15-12-2023, 00:40:40,    258,    0.0,    5.0,   0.00,   0.00, 1024.8,   93.7, -999.0
15-12-2023, 00:40:50,    258,    0.0,    5.0,   0.00,   0.00, 1024.8,   94.1, -999.0
15-12-2023, 00:41:00,    258,    0.0,    5.0,   0.00,   0.00, 1024.8,   94.5, -999.0
15-12-2023, 00:41:10,    258,    0.0,    4.9,   0.00,   0.00, 1024.8,   94.5, -999.0
15-12-2023, 00:41:20,    257,    0.0,    4.9,   0.00,   0.00, 1024.8,   94.8, -999.0
15-12-2023, 00:41:30,    258,    0.0,    5.0,   0.00,   0.00, 1024.8,   95.5, -999.0
15-12-2023, 00:41:40,    258,    0.0,    5.0,   0.00,   0.00, 1024.8,   96.7, -999.0
15-12-2023, 00:41:50,    257,    0.0,    5.0,   0.00,   0.00, 1024.8,   96.8, -999.0
15-12-2023, 00:42:00,    258,    0.0,    5.0,   0.00,   0.00, 1024.8,   96.6, -999.0
15-12-2023, 00:42:10,    257,    0.0,    4.9,   0.00,   0.00, 1024.8,   95.2, -999.0
15-12-2023, 00:42:20,    258,    0.0,    4.9,   0.00,   0.00, 1024.8,   93.8, -999.0
15-12-2023, 00:42:30,    257,    0.0,    4.9,   0.00,   0.00, 1024.8,   93.8, -999.0
15-12-2023, 00:42:40,    258,    0.0,    4.9,   0.00,   0.00, 1024.8,   94.5, -999.0
15-12-2023, 00:42:50,    258,    0.0,    4.9,   0.00,   0.00, 1024.8,   95.3, -999.0
15-12-2023, 00:43:00,    257,    0.0,    4.9,   0.00,   0.00, 1024.8,   95.6, -999.0
15-12-2023, 00:43:10,    257,    0.0,    5.0,   0.00,   0.00, 1024.8,   95.0, -999.0
15-12-2023, 00:43:20,    257,    0.0,    5.0,   0.00,   0.00, 1024.8,   94.6, -999.0
15-12-2023, 00:43:30,    258,    0.0,    5.0,   0.00,   0.00, 1024.8,   94.2, -999.0
15-12-2023, 00:43:40,    258,    0.0,    4.9,   0.00,   0.00, 1024.8,   93.9, -999.0
15-12-2023, 00:43:50,    258,    0.0,    4.9,   0.00,   0.00, 1024.8,   94.3, -999.0
15-12-2023, 00:44:00,    258,    0.0,    5.0,   0.00,   0.00, 1024.8,   95.0, -999.0
15-12-2023, 00:44:10,    257,    0.0,    5.0,   0.00,   0.00, 1024.8,   95.3, -999.0
15-12-2023, 00:44:20,    258,    0.0,    5.0,   0.00,   0.00, 1024.8,   95.7, -999.0
15-12-2023, 00:44:30,    258,    0.0,    5.0,   0.00,   0.00, 1024.8,   96.1, -999.0
15-12-2023, 00:44:40,    258,    0.0,    5.0,   0.00,   0.00, 1024.8,   95.5, -999.0
15-12-2023, 00:44:50,    258,    0.0,    5.0,   0.00,   0.00, 1024.8,   94.6, -999.0
15-12-2023, 00:45:00,    257,    0.0,    5.0,   0.00,   0.00, 1024.8,   95.2, -999.0
15-12-2023, 00:45:10,    258,    0.0,    5.0,   0.00,   0.00, 1024.8,   96.0, -999.0
15-12-2023, 00:45:20,    258,    0.0,    5.0,   0.00,   0.00, 1024.8,   95.7, -999.0
15-12-2023, 00:45:30,    258,    0.0,    5.0,   0.00,   0.00, 1024.8,   94.9, -999.0
15-12-2023, 00:45:40,    258,    0.0,    4.9,   0.00,   0.00, 1024.8,   94.5, -999.0
15-12-2023, 00:45:50,    258,    0.0,    5.0,   0.00,   0.00, 1024.8,   94.3, -999.0
15-12-2023, 00:45:59,    258,    0.0,    4.9,   0.00,   0.00, 1024.8,   93.8, -999.0
15-12-2023, 00:46:10,    258,    0.0,    4.9,   0.00,   0.00, 1024.8,   93.2, -999.0
15-12-2023, 00:46:20,    258,    0.0,    4.9,   0.00,   0.00, 1024.8,   92.9, -999.0
15-12-2023, 00:46:30,    257,    0.0,    4.9,   0.00,   0.00, 1024.8,   93.8, -999.0
15-12-2023, 00:46:39,    258,    0.0,    5.0,   0.00,   0.00, 1024.8,   93.8, -999.0
15-12-2023, 00:46:50,    258,    0.0,    4.9,   0.00,   0.00, 1024.8,   93.1, -999.0